{"data":{"norad_id":55478,"intl_designator":"2023-015AF","name":"STARLINK-5691","alt_names":[],"object_type":"PAYLOAD","status":"ACTIVE","operator":null,"country":"US","launch_date":"2023-02-02","launch_site_code":"AFETR","launch_vehicle":null,"mission":null,"orbit_class":"UNKNOWN","rcs_meters":null,"size_class":null,"mass_kg":null,"dimensions":null,"purposes":["comms"],"wikipedia_slug":null,"has_3d_model":false,"image_url":null,"decayed_at":null,"tle_current":{"epoch":"2026-05-24T08:11:31.484832Z","epoch_age_seconds":128028,"freshness":"FRESH","line1":"1 55478U 23015AF  26144.34133663  .00003843  00000+0  14905-3 0  9995","line2":"2 55478  43.0020 250.8866 0001430 275.2360  84.8328 15.27588259182419","mean_motion":15.27588259,"eccentricity":0.000143,"inclination_deg":43.002,"raan_deg":250.8866,"arg_perigee_deg":275.236,"mean_anomaly_deg":84.8328,"bstar":0.00014905,"rev_number":18241,"period_min":94.266239054669,"perigee_km":482.04321965862,"apogee_km":484.00551180922,"semimajor_km":6861.1613657339,"source":"CELESTRAK","updated_at":"2026-05-25T13:38:17.808518Z"}}}